Tracking 17925 objects as of 22-January-2017
HD Live streaming from Space Station
objects crossing your sky now

TERRIERS

Track TERRIERS now!
10-day predictions
TERRIERS is classified as:


NORAD ID: 25735
Int'l Code: 1999-026A
Perigee: 436.4 km
Apogee: 443.1 km
Inclination: 97.2 °
Period: 93.2 minutes
Semi major axis: 6810 km
RCS: 0.4968 m2 (medium)
Launch date: May 18, 1999
Source: United States (US)
Launch site: Pegasus launched from Western Range Air Space (WRAS)
Your satellite tracking list
Your tracking list is empty





NASA's NSSDC Master Catalog

Two Line Element Set (TLE):
1 25735U 99026A   17021.92881475 +.00002150 +00000-0 +48090-4 0  9996
2 25735 097.1643 189.4841 0004864 166.9986 193.1390 15.44582543983643
Source of the keplerian elements: AFSPC